This is the latest recevied weather packets stored in our database for station/object IU2VCR-15. If no packets are shown the sender has not sent any weather packets the latest 10 day(s).
| Time | Temp. | Humidity | Pressure | Rain* | Wind** | Luminosity | Snow |
|---|---|---|---|---|---|---|---|
| 1788143767 | 70° F | 75% | 761.3 mmHg | 0 in | - | - | - |
| 1788143162 | 70° F | 73% | 761.2 mmHg | 0 in | - | - | - |
| 1788142559 | 70° F | 73% | 761.2 mmHg | 0 in | - | - | - |
| 1788141953 | 71° F | 73% | 761.2 mmHg | 0 in | - | - | - |
| 1788141349 | 70° F | 73% | 761.4 mmHg | 0 in | - | - | - |
| 1788140746 | 71° F | 73% | 761.5 mmHg | 0 in | - | - | - |
| 1788140143 | 71° F | 73% | 761.5 mmHg | 0 in | - | - | - |
| 1788139542 | 71° F | 73% | 761.4 mmHg | 0 in | - | - | - |
| 1788138938 | 71° F | 72% | 761.5 mmHg | 0 in | - | - | - |
| 1788138333 | 72° F | 71% | 761.4 mmHg | 0 in | - | - | - |
| 1788137727 | 71° F | 72% | 761.2 mmHg | 0 in | - | - | - |
| 1788137121 | 72° F | 71% | 761.4 mmHg | 0 in | - | - | - |
| 1788136517 | 72° F | 70% | 761.5 mmHg | 0 in | - | - | - |
| 1788135914 | 72° F | 70% | 761.6 mmHg | 0 in | - | - | - |
| 1788135309 | 72° F | 68% | 761.5 mmHg | 0 in | - | - | - |
| 1788134707 | 72° F | 68% | 761.5 mmHg | 0 in | - | - | - |
| 1788134106 | 73° F | 67% | 761.7 mmHg | 0 in | - | - | - |
| 1788133503 | 73° F | 66% | 761.6 mmHg | 0 in | - | - | - |
| 1788132898 | 73° F | 66% | 761.7 mmHg | 0 in | - | - | - |
| 1788132294 | 73° F | 65% | 761.7 mmHg | 0 in | - | - | - |
| 1788131690 | 73° F | 67% | 761.8 mmHg | 0 in | - | - | - |
| 1788131084 | 74° F | 64% | 761.7 mmHg | 0 in | - | - | - |
| 1788130480 | 74° F | 65% | 761.9 mmHg | 0 in | - | - | - |
| 1788129877 | 74° F | 65% | 761.8 mmHg | 0 in | - | - | - |
| 1788129271 | 74° F | 65% | 761.9 mmHg | 0 in | - | - | - |
* Rain since midnight (hover to see other rain measurements)
** Current wind speed in m/s (hover to see current wind gust speed)